IRNSS-1I

Last updated on Tue Nov 19 2024 00:02:43 GMT+0000 (Coordinated Universal Time)

1 43286U 18035A 24322.43243873 .00000086 00000+0 00000+0 0 9999 2 43286 29.0552 83.2125 0022294 180.7805 3.6378 1.00273625 24297
UTC large
Height (km)
Speed (km/s)
/
Latitude / Longitude
Inclination (degrees)
Orbital Period (minutes)
Azimuth
Elevation
Range (km)
Doppler Factor

Next 0 passes for location: London (51.5072 / 0.1276)

Sorry there are no passes over London.